This demonstration page uses our WeatherBlox Daily Observations layout. Learn more.

Left ArrowRight Arrow

Hourly Observations for April 16, 2017

Temp ( °F °C ) Dew Point ( °F °C ) Humidity (%) Winds ( mph kmh ) Pressure ( in mb ) Visibility ( mi km ) Precip ( " mm )
12:53 am 00:53 Clear 49 9.4 41 5 74 74 NW 5 7 29.95 1014 10 16 0.00 0.00
1:53 am 01:53 Clear 47 8.3 41 5 80 80 NW 3 6 29.93 1014 10 16 0.00 0.00
2:53 am 02:53 Clear 47 8.3 41 5 80 80 NNW 3 6 29.93 1014 10 16 0.00 0.00
3:53 am 03:53 Clear 47 8.3 41 5 80 80 NNW 3 6 29.91 1013 10 16 0.00 0.00
4:53 am 04:53 Clear 46 7.8 41 5 83 83 NW 6 9 29.91 1013 10 16 0.00 0.00
5:53 am 05:53 Clear 46 7.8 42 5.6 86 86 undefined N/A 29.88 1012 10 16 0.00 0.00
6:53 am 06:53 Sunny 46 7.8 41 5 83 83 Calm 29.90 1013 10 16 0.00 0.00
7:53 am 07:53 Sunny 51 10.6 41 5 69 69 Calm 29.91 1013 10 16 0.00 0.00
8:53 am 08:53 Mostly Sunny 55 12.8 42 5.6 62 62 N 3 6 29.88 1012 10 16 0.00 0.00
9:53 am 09:53 Partly Cloudy 57 13.9 43 6.1 60 60 Calm 29.87 1012 10 16 0.00 0.00
10:53 am 10:53 Mostly Cloudy 58 14.4 44 6.7 60 60 Calm 29.88 1012 10 16 0.00 0.00
11:53 am 11:53 Cloudy 58 14.4 44 6.7 60 60 Calm 29.89 1012 10 16 0.00 0.00
12:53 pm 12:53 Cloudy 57 13.9 48 8.9 72 72 SW 6 9 29.89 1012 10 16 0.00 0.03
1:53 pm 13:53 Cloudy with Light Rain 54 12.2 48 8.9 80 80 SSW 13 20 29.91 1013 6 10 0.02 0.51
2:42 pm 14:42 Cloudy with Light Rain 52 11 48 9 88 88 SSW 8 13 29.94 1014 5 8 0.00 0.00
2:53 pm 14:53 Cloudy 51 10.6 48 8.9 89 89 SSW 9 15 29.91 1013 10 16 0.04 1.02
3:51 pm 15:51 Cloudy 52 11 48 9 88 88 S 13 20 29.94 1014 10 16 0.00 0.03
3:53 pm 15:53 Cloudy 51 10.6 49 9.4 92 92 S 12 19 29.90 1012 10 16 0.00 0.03
4:20 pm 16:20 Cloudy 50 10 48 9 94 94 S 18 30 29.94 1014 10 16 0.00 0.00
4:53 pm 16:53 Cloudy with Light Rain 50 10 48 8.9 93 93 SSW 15 24 29.91 1013 8 13 0.00 0.03
5:53 pm 17:53 Cloudy 50 10 48 8.9 93 93 S 13 20 29.92 1013 10 16 0.01 0.25
6:53 pm 18:53 Cloudy 50 10 48 8.9 93 93 S 14 22 29.91 1013 10 16 0.00 0.00
7:53 pm 19:53 Cloudy 50 10 49 9.4 96 96 SSW 12 19 29.93 1013 10 16 0.00 0.00
8:53 pm 20:53 Cloudy 51 10.6 50 10 96 96 S 9 15 29.94 1014 10 16 0.00 0.00
9:48 pm 21:48 Cloudy 52 11 50 10 94 94 SSW 10 17 29.97 1015 8 13 0.00 0.00
9:53 pm 21:53 Cloudy 51 10.6 50 10 96 96 S 13 20 29.96 1014 9 14 0.00 0.00
10:36 pm 22:36 Cloudy 52 11.1 51 10.6 97 97 SSW 8 13 29.97 1015 10 16 0.00 0.00
10:53 pm 22:53 Cloudy 52 11.1 51 10.6 97 97 S 9 15 29.96 1015 9 14 0.00 0.00
11:19 pm 23:19 Cloudy 52 11.1 50 10 93 93 S 12 19 29.97 1015 10 16 0.00 0.00
11:53 pm 23:53 Cloudy 52 11.1 50 10 93 93 SSW 12 19 29.97 1015 10 16 0.00 0.00

Powered by AerisWeather